TimeCST,TemperatureF,Dew PointF,Humidity,Sea Level PressureIn,VisibilityMPH,Wind Direction,Wind SpeedMPH,Gust SpeedMPH,PrecipitationIn,Events,Conditions,WindDirDegrees,DateUTC
12:55 AM,35.8,34.9,97,30.14,10.0,North,5.8,-,N/A,,Clear,10,2012-11-26 06:55:00
1:55 AM,36.1,35.4,97,30.14,10.0,North,4.6,-,N/A,,Clear,10,2012-11-26 07:55:00
2:55 AM,36.1,35.1,96,30.14,10.0,North,4.6,-,N/A,,Clear,10,2012-11-26 08:55:00
3:55 AM,37.9,36.9,96,30.14,10.0,NNE,4.6,-,N/A,,Clear,30,2012-11-26 09:55:00
4:55 AM,39.6,37.4,92,30.15,10.0,NNE,5.8,-,N/A,,Clear,20,2012-11-26 10:55:00
5:55 AM,39.7,37.4,91,30.17,10.0,NE,4.6,-,N/A,,Clear,40,2012-11-26 11:55:00
6:55 AM,45.1,41.0,85,30.18,10.0,ENE,4.6,-,N/A,,Mostly Cloudy,60,2012-11-26 12:55:00
7:55 AM,50.5,43.9,78,30.21,10.0,ENE,4.6,-,N/A,,Scattered Clouds,60,2012-11-26 13:55:00
8:55 AM,57.7,46.6,66,30.22,10.0,East,8.1,-,N/A,,Clear,80,2012-11-26 14:55:00
8:57 AM,57.2,46.4,67,30.23,10.0,ENE,9.2,-,N/A,,Light Drizzle,70,2012-11-26 14:57:00
9:06 AM,59.0,48.2,67,30.22,10.0,East,6.9,-,N/A,,Partly Cloudy,80,2012-11-26 15:06:00
9:55 AM,59.9,48.0,65,30.21,10.0,East,8.1,-,0.00,,Mostly Cloudy,80,2012-11-26 15:55:00
10:55 AM,61.9,48.9,62,30.21,10.0,East,8.1,-,N/A,,Scattered Clouds,80,2012-11-26 16:55:00
11:55 AM,66.2,52.9,62,30.19,10.0,SE,10.4,-,N/A,,Mostly Cloudy,130,2012-11-26 17:55:00
12:38 PM,66.2,55.4,68,30.17,10.0,SE,8.1,-,N/A,,Light Drizzle,130,2012-11-26 18:38:00
12:48 PM,66.2,57.2,73,30.17,10.0,SE,9.2,-,N/A,,Partly Cloudy,130,2012-11-26 18:48:00
12:49 PM,66.2,57.2,73,30.17,10.0,SE,6.9,-,N/A,,Light Drizzle,140,2012-11-26 18:49:00
12:52 PM,66.2,57.2,73,30.17,10.0,ESE,6.9,-,N/A,,Partly Cloudy,120,2012-11-26 18:52:00
12:55 PM,66.7,57.0,71,30.17,10.0,ESE,9.2,-,0.00,,Partly Cloudy,120,2012-11-26 18:55:00
1:55 PM,66.6,56.7,70,30.15,10.0,SE,10.4,-,N/A,,Partly Cloudy,140,2012-11-26 19:55:00
2:55 PM,66.2,57.6,74,30.15,10.0,SE,6.9,-,N/A,,Mostly Cloudy,130,2012-11-26 20:55:00
3:38 PM,66.2,59.0,78,30.15,10.0,ESE,5.8,-,N/A,,Light Drizzle,110,2012-11-26 21:38:00
3:46 PM,66.2,59.0,78,30.14,10.0,East,6.9,-,N/A,,Mostly Cloudy,100,2012-11-26 21:46:00
3:55 PM,65.7,58.6,78,30.15,10.0,East,4.6,-,0.00,,Mostly Cloudy,100,2012-11-26 21:55:00
4:55 PM,65.1,60.3,84,30.15,10.0,East,3.5,-,N/A,,Overcast,90,2012-11-26 22:55:00
5:55 PM,65.5,60.8,85,30.15,10.0,ESE,6.9,-,N/A,,Overcast,120,2012-11-26 23:55:00
6:55 PM,65.8,61.5,86,30.16,10.0,ESE,5.8,-,N/A,,Mostly Cloudy,120,2012-11-27 00:55:00
7:55 PM,66.2,62.1,86,30.17,10.0,SE,5.8,-,N/A,,Mostly Cloudy,130,2012-11-27 01:55:00
8:20 PM,66.2,62.6,88,30.17,10.0,SE,5.8,-,N/A,,Mostly Cloudy,130,2012-11-27 02:20:00
8:55 PM,66.9,62.1,84,30.17,10.0,SE,6.9,-,N/A,,Overcast,130,2012-11-27 02:55:00
9:50 PM,66.2,62.6,88,30.17,10.0,South,6.9,-,N/A,,Overcast,170,2012-11-27 03:50:00
9:55 PM,66.7,61.7,84,30.17,10.0,SSE,8.1,-,N/A,,Overcast,160,2012-11-27 03:55:00
9:58 PM,66.2,60.8,83,30.16,10.0,SSE,8.1,-,N/A,,Mostly Cloudy,160,2012-11-27 03:58:00
10:05 PM,66.2,60.8,83,30.16,10.0,SSE,9.2,-,N/A,,Mostly Cloudy,150,2012-11-27 04:05:00
10:09 PM,66.2,60.8,83,30.15,10.0,SSE,9.2,-,N/A,,Scattered Clouds,150,2012-11-27 04:09:00
10:34 PM,66.2,60.8,83,30.15,10.0,SSE,9.2,-,N/A,,Mostly Cloudy,160,2012-11-27 04:34:00
10:55 PM,66.7,61.5,83,30.15,10.0,SSE,10.4,-,N/A,,Mostly Cloudy,160,2012-11-27 04:55:00
11:02 PM,66.2,60.8,83,30.15,10.0,South,9.2,-,N/A,,Mostly Cloudy,170,2012-11-27 05:02:00
11:33 PM,66.2,60.8,83,30.15,10.0,South,10.4,-,N/A,,Light Drizzle,170,2012-11-27 05:33:00
11:55 PM,66.4,61.2,83,30.14,10.0,South,9.2,-,0.00,,Mostly Cloudy,170,2012-11-27 05:55:00